Flag Weather past 2 weeks in Lowell, Massachusetts, U.S.A.

Now
34 °F

More clouds than sun.


Feels Like: 30 °F
Forecast: 28 / 35 °F
Wind: 5 mph from West

Location: Hanscom Field

Current Time: Nov 27, 2014 at 12:45:30 PM

Latest Report: Nov 27, 2014 at 11:56 AM


Visibility: 10 mi

Pressure: 29.98 "Hg

Humidity: 85%

Dew point: 30 °F

Location of LowellLocation

Historic Weather in Lowell — Graph

°F

Lowell temperature yesterday

Maximum temperature yesterday: 43 °F (at 12:56 AM)
Minimum temperature yesterday: 32 °F (at 12:56 PM)
Average temperature yesterday: 36 °F

Past Weeks' High & Low Weather Summary

 TemperatureHumidityPressure
High65 °F (Nov 24, 1:56 PM)100% (Nov 14, 12:56 AM)30.47 "Hg (Nov 14, 12:56 AM)
Low19 °F (Nov 16, 4:56 AM)18% (Nov 22, 2:56 PM)29.49 "Hg (Nov 17, 8:56 PM)
Average38 °F66%30.02 "Hg
* Reported Nov 12 11:03 AM — Nov 27 11:56 AM, Lowell, Weather by CustomWeather, © 2014

Note: Actual official high and low records may vary slightly from our data, if they occured in-between our weather recording intervals... More about our weather records

Advertising

Lowell weather history for previous 24 hours

 ConditionsComfort  
Time TempWeatherWind HumidityBarometerVisibility
11:56 AM
Nov 27
34 °FMore clouds than sun.5 mph85%29.98 "Hg10 mi
10:56 AM34 °FOvercast.3 mph88%29.99 "Hg10 mi
9:56 AM33 °FOvercast.6 mph85%29.99 "Hg10 mi
8:56 AM33 °FPartly sunny.6 mph85%29.96 "Hg10 mi
7:56 AM32 °FOvercast.3 mph92%29.91 "Hg10 mi
6:56 AM32 °FMore clouds than sun.7 mph92%29.89 "Hg10 mi
5:56 AM31 °FPassing clouds.5 mph96%29.87 "Hg10 mi
4:56 AM32 °FOvercast.7 mph92%29.85 "Hg10 mi
3:56 AM32 °FLight snow. Ice fog.12 mph96%29.82 "Hg6 mi
2:56 AM32 °FLight snow. Ice fog.8 mph96%29.79 "Hg2 mi
1:56 AM32 °FLight snow. Ice fog.12 mph96%29.78 "Hg1 mi
1:04 AM32 °FLight snow. Ice fog.10 mph96%29.72 "Hg1 mi
12:56 AM32 °FLight snow. Ice fog.13 mph96%29.76 "Hg2 mi
12:03 AM32 °FLight snow. Ice fog.15 mph92%29.68 "Hg2 mi
11:56 PM
Nov 26
32 °FLight snow. Ice fog.13 mph92%29.74 "Hg2 mi
10:56 PM32 °FLight snow. Ice fog.18 mph92%29.74 "Hg2 mi
9:56 PM32 °FLight freezing rain. Ice fog.16 mph96%29.76 "Hg2 mi
8:56 PM33 °FLight rain. Fog.15 mph92%29.79 "Hg3 mi
7:56 PM33 °FLight rain. Overcast.14 mph92%29.83 "Hg7 mi
6:56 PM32 °FFreezing rain. Ice fog.16 mph96%29.84 "Hg1 mi
6:03 PM32 °FLight snow. Ice fog.16 mph96%29.85 "Hg2 mi
5:56 PM32 °FLight snow. Ice fog.16 mph96%29.90 "Hg1 mi
5:02 PM32 °FLight snow. Ice fog.14 mph96%29.91 "Hg3 mi
3:56 PM32 °FLight snow. Ice fog.15 mph96%29.97 "Hg1 mi
2:56 PM32 °FLight snow. Ice fog.10 mph96%30.08 "Hg1 mi
1:56 PM32 °FLight snow. Ice fog.7 mph100%30.09 "Hg1 mi
12:56 PM32 °FLight snow. Ice fog.6 mph100%30.10 "Hg1 mi
12:03 PM34 °FRain. Fog.7 mph97%30.13 "Hg2 mi
Weather by CustomWeather, © 2014

See weather overviewHow to use our weather pages